Tracking 33744 objects as of 12-Apr-2026
HD Live streaming from Space Station
objects crossing your sky now

STARLINK-36885

Track STARLINK-36885 now!
10-day predictions
STARLINK-36885 is classified as:


NORAD ID: 68049
Int'l Code: 2026-041K
Perigee: 406.4 km
Apogee: 408.1 km
Inclination: 53.2 °
Period: 92.6 minutes
Semi major axis: 6778 km
RCS: Unknown
Launch date: March 2, 2026
Source: United States (US)
Launch site: AIR FORCE EASTERN TEST RANGE (AFETR)
Your satellite tracking list
Your tracking list is empty




NASA's NSSDC Master Catalog

Two Line Element Set (TLE):
1 68049U 26041K   26102.50001156 -.01905278  00000-0 -30832-1 0  9990
2 68049  53.1603 254.1140 0001247  75.7436  41.1156 15.55697484  6323
Source of the keplerian elements: AFSPC